Погода в Ташкенте

Погода в Ташкенте : погода сейчас, прогноз погоды и архив. Всё, что Вы хотите узнать о погоде в Ташкенте!

Хотите узнать прогноз погоды в Ташкенте? Тогда Вам сюда: Погода в Ташкенте

Поиск расширенной информации на нашем сайте:

Другие новости

Новости СМИ2

Главная страница сайта

Новости сайта

02.10.2013

Напоминаем, что на нашем новом сайте вы можете получить высокодетализированные прогнозы погоды по пунктам России, СНГ и мира (включающие важные для авиации метеовеличины, такие как направление и скорость ветра, видимость, явления погоды, количество и форма облачности, нижняя и верхняя граница облачности), а также ознакомиться с разнообразными материалами по авиационной метеорологии и подборкой полезных ссылок на эту тему.

Сайт Метеоцентр.Азия посвящён разработке технологий оптимизации авиаметеорологического обслуживания, включая проектирование и перспективное создание нескольких автоматизированных авиаметеорологических систем:
- система выпуска высокодетальных прогностических карт явлений погоды для нижнего воздушного пространства по России и ближнему зарубежью;
- система верификации прогнозов TAF (выпускаемых синоптиками официальных АМСГ РФ и ближнего зарубежья) и AUTOTAF (выпускаемых сайтом Метеоцентр.Азия) - выявление ошибок, онлайн-сопоставление с фактической погодой METAR, автоматическое внесение коррективов в прогнозы при резком отклонении фактической погоды от прогноза, подсчёт оправдываемости прогнозов по элементам и в целом;
- система обработки, анализа и отображения авиаметеорологической информации для применения провайдерами метеорологической информации.

Рекомендуем: Трансфер в израиле israel4u.ru.

Погода в Ташкенте - сегодня

Время (UTC), дата Ветер
(°,м/с) 
Видим.   Явления Облачность Т
(°С)
Тd
(°С)
f(%) Тe
(°С)
Pmin
(гПа)
dP
(гПа)
Po
(мм)
O2
(г/м3)
Тmin Tmax R s Состояние
почвы
15 18.01.17 100 (В) 10 км    4/0 верхняя 
[Ci fib]
+1.6 -1.9 78 +2  1031.3  0.2  728  292    +6.7       
18 18.01.17 080 (В) 10 км    ясно 
+1.2 -3.7 70 +2  1031.4  728  292    +6.7       
21 18.01.17 080 (В) 10 км    3/0 верхняя 
[Ci fib]
+0.7 -5.4 64 +1  1030.9  -0.5  728  293           
00 19.01.17 080 (В) 10 км    ясно 
-0.3 -5.8 66 1030.8  -0.4  728  294           
03 19.01.17 090 (В) 20000 м    8/0 средняя 
[Ac lent]
-0.5 -7.2 60 1030.5  -0.3  727  294           
06 19.01.17 090 (В) 20000 м    9/0 средняя, верхняя 
[Ac trans|Ci fib]
+7.6 -6.4 36 +9  1029.2  0.5  728  286  -0.7         
09 19.01.17 160 (Ю) 20000 м    9/3 1000 м средняя, верхняя 
[Sc|Ac trans|Ci fib]
+11 -5 32 +11  1027  -1.4  727  282           
12 19.01.17 090 (В) 10 км    8/1 1000 м средняя, верхняя 
[Sc|Ac lent|Ci fib]
+8.9 -5.4 36 +10  1027.3  -0.1  727  284           
15 19.01.17 090 (В) 10 км    3/0 верхняя 
[Ci fib]
+3.5 -6.7 47 +4  1028.7  0.2  727  290    +11       
18 19.01.17 080 (В) 10 км    ясно 
+3.1 -7.4 46 +4  1028.1  -0.6  726  290    +11       
21 19.01.17 070 (В) 10 км    9/0 средняя, верхняя 
[Ac lent|Ci]
+3.2 -9.1 40 +4  1026.6  -1.5  725  290           
00 20.01.17 080 (В) 10 км    9/0 средняя, верхняя 
[Ac lent|Ci]
+4.4 -8.5 39 +5  1026.4  725  288           
03 20.01.17 050 (СВ) 20000 м    9/8 1000 м кучево-дожд., верхняя 
[Cb calv|Ci fib]
+6.6 -4.7 44 +6  1025.6  -0.2  725  286           
06 20.01.17 110 (В) 20000 м    9/1 1000 м средняя, верхняя 
[Cu hum|Ac trans|Ci fib]
+9.5 -5.4 34 +9  1026.1  1.1  726  283  +2.3         
09 20.01.17 080 (В) 20000 м    9/0 средняя, верхняя 
[Ac trans|Ci fib]
+12.8 -2.2 35 +13  1023.1  -2.2  724  279           
12 20.01.17 080 (В) 20000 м    9/0 средняя, верхняя 
[Ac trans|Ci fib]
+10.7 -2.7 39 +11  1021.8  -1.7  723  281           
15 20.01.17 100 (В) 20000 м    9/0 средняя, верхняя 
[Ac cast|Ci fib]
+6.7 -3 50 +7  1022.6  723  285    +13.2       
18 20.01.17 090 (В) 10 км    9/0 средняя, верхняя 
[Ac trans|Ci fib]
+6.3 -4.4 46 +6  1022.4  -0.3  723  285    +13.2       
21 20.01.17 300 (СЗ) 10 км    10/10 1000 м 
[Sc]
+2.1 -4.3 63 +1  1024.6  1.2  724  290           
00 21.01.17 100 (В) 10 км  слаб. дождь  10/10 600 м 
[Ns]
+3.7 -4 57 +3  1025.1  0.8  724  288           
03 21.01.17 090 (В) 10 км  в посл. час дождь  10/10 600 м 
[Sc|Ns]
+4.2 +1.4 82 +4  1025.5  0.6  725  287      0.4     
06 21.01.17 320 (СЗ) 4000 м  слаб. дождь  10/10 600 м 
[Sc|Ns]
+4.5 +2.5 87 +5  1026.3  0.7  725  287  +2.1    0.4     
09 21.01.17 170 (Ю) 4000 м  слаб. дождь  10/10 300 м 
[Sc|Ns]
+5.6 +3.7 88 +6  1024.4  -1.4  724  285           
12 21.01.17 040 (СВ) 1000 м  дождь  10/10 200 м 
[Sc|Ns]
+4.6 +3.4 92 +5  1024  -0.6  724  286           
18 21.01.17 090 (В) 4000 м  слаб. дождь  10/10 300 м 
[Sc|Ns]
+4.5 +3.8 95 +5  1024.4  724  286    +5.8     
Время (UTC), дата Ветер
(°,м/с) 
Видим.   Явления Облачность Т
(°С)
Тd
(°С)
f(%) Тe
(°С)
Pmin
(гПа)
dP
(гПа)
Po
(мм)
O2
(г/м3)
Тmin Tmax R s Состояние
почвы

Для получения пояснительной информации подведите курсор к названию столбца.

ПОГОДА в Ташкенте - архив

Всё, что Вы хотите узнать о погоде в Ташкенте - удобно и подробно!

Выберите нужную дату (начиная с 1 января 2015* года) и нажмите кнопку "Найти".
Будут отображены архивные сводки погоды по пункту Ташкент, начиная с указанной даты.


Отображать данные в формате CSV (для использования в таблицах Excel)


Внимание! Наш архив погоды предназначен исключительно для личного некоммерческого использования в познавательных целях. Если Вам необходимы официальные справки о состоянии погоды (для производственных, юридических, коммерческих и т.п. целей), обращайтесь в органы Росгидромета.

*Примечание: данная дата относится к архиву по метеостанциям СССР (Россия, СНГ, Балтия).
Архив по метеостанциям Зарубежной Европы и Азии (кроме Китая) хранится 10 дней, по другим регионам земного шара (Китай, Африка, Америка, Австралия, Океания) - 1 день.

Ташкент - район местоположения метеостанции


Название, широта, долгота, высота метеостанции:
Ташкент (город) 41.3°ш. 69.3°д. 488 м над ур. моря [Узбекистан]

Дополнительная информация

В oтличие oт бoльшинства пoгoдных сайтoв мы публикуем пoдрoбную метеoинфoрмацию в детальнoм прoфессиoнальнoм фoрмате.

Характеристики температуры и влажнoсти вoздуха измеряются на высoте 2 м в тени вдали oт зданий и деревьев.
Скoрoсть ветра измеряется на высoте 10 м (на урoвне рoста челoвека скoрoсть ветра ниже в 1.5-2 раза). Если метеoстанция нахoдится в гoрoде или в лесу, тo скoрoсть ветра занижена на 2-4 м/с пo сравнению с oткрытым местoм. Скoрoсть ветра над акватoриями крупных рек и oзёр, а также на вершинах хoлмoв на 2-5 м/с выше, чем в oбычных услoвиях.
Атмoсфернoе давление в разных тoчках местнoсти мoжет значительнo oтличаться oт давления на метеoстанции, в зависимoсти oт услoвий рельефа (при пoдъёме на 10 м давление пoнижается примернo на 1 мм рт.ст.).